Find Starlink 33823

NORAD ID: 63661 Int'l Des: 2025-083 Owner: SPXS Country: US Constellation: starlink operational
LEOCIRCULAR

現在のビュー

3D地球を読み込み中...

About Starlink 33823

Starlink 33823 (NORAD 63661) is a starlink constellation satellite (v2 mini) launched Apr 25, 2025 by SPXS of US. It operates in LEO, CIRCULAR orbit with a mass of 575.00 kg.

Starlink 33823について

説明を読み込み中...

次回通過

Passes for default location (London). Set your location on the main map for personalized predictions.

高度履歴

Loading altitude history...

軌道要素

1 63661U 25083AD 26178.52612028 .00015739 00000-0 58033-3 0 9997
2 63661 43.0032 105.0201 0001675 266.7800 93.2860 15.27575668 66892
Epoch: Jun 27, 2026 • Age: 7 hours

現在のステータス

高度 484.1 km
速度 7.63 km/s
衛星直下点 28.08°N, 40.32°E
打ち上げ日 Apr 25, 2025
運用期間 1.1 years
タイプ internet

技術仕様

分類 Payload
質量 575.00 kg
乾燥質量 530.00 kg
総質量 575.00 kg
長さ 0.30 m
直径 4.10 m
スパン 29.00 m
形状 Box + pan
製造者 SPXS
バスタイプ Starlink V2MO
フェーズステータス In Orbit
所有者/国 SPXS/US

Most Searched